Regional Weather Roundup
Issued by NWS Cleveland, OH

Home | Current Version | Previous Version | Graphics & Text | Print | Product List | Glossary On
Versions: 1 2 3 4 5 6 7 8 9 10 11 12 13 14 15 16 17 18 19 20 21 22 23 24 25 26 27 28 29 30 31 32 33 34 35 36 37 38 39 40 41 42 43 44 45 46 47 48 49 50
000
ASUS41 KCLE 201510
RWRCLE
OHIO REGIONAL WEATHER ROUNDUP
NATIONAL WEATHER SERVICE WILMINGTON, OH
1100 AM EDT MON OCT 20 2014

NOTE: "FAIR" INDICATES FEW OR NO CLOUDS BELOW 12,000 FEET WITH NO
SIGNIFICANT WEATHER AND/OR OBSTRUCTIONS TO VISIBILITY.

OHZ001>008-015>018-024>027-034-035-043-044-201600-
   NORTHWEST OHIO

CITY           SKY/WX    TMP DP  RH WIND       PRES   REMARKS
DEFIANCE       CLOUDY    54  46  74 SW10      29.87F
FINDLAY        CLOUDY    53  45  74 S14       29.88F
TOLEDO EXPRESS PTSUNNY   52  45  77 SW10      29.85F
TOLEDO METCALF PTSUNNY   53  44  71 S12       29.87F
LIMA           LGT RAIN  52  46  80 S12       29.90F
$$

OHZ009>014-019>023-028>033-038-089-201600-
   NORTHEAST OHIO

CITY           SKY/WX    TMP DP  RH WIND       PRES   REMARKS
CLE-HOPKINS    CLOUDY    52  42  69 SW12      29.93F
CLE-LAKEFRONT  CLOUDY    53  42  66 S14G21    29.90F
CUY CO. ARPT   DRIZZLE   54  45  71 S12       29.91F
LORAIN-ELYRIA  LGT RAIN  51  43  74 S9        29.90F
ASHTABULA      CLOUDY    52  42  69 S14G21    29.92F
AKRON-CANTON   CLOUDY    51  40  65 SW14      29.94F
WOOSTER        MOSUNNY   53  42  66 SW13      29.94F
MANSFIELD      PTSUNNY   54  44  69 S13       29.92F
YOUNGSTOWN     CLOUDY    50  40  68 SW13      29.94F
$$

OHZ042-051>053-060>062-070>072-077>081-201600-
  SOUTHWEST OHIO

CITY           SKY/WX    TMP DP  RH WIND       PRES   REMARKS
CINC-COVINGTON PTSUNNY   56  46  69 S12       29.98F
CINC-LUNKEN    MOSUNNY   55  48  77 S9        29.99F
HAMILTON       MOSUNNY   57  47  69 SW8G16    29.97F
DAYTON         PTSUNNY   56  46  69 S15G24    29.93F
WRIGHT-PAT AFB PTSUNNY   57  46  65 SW14      29.94F
DAYTON GENERAL MOSUNNY   55  45  68 SW14      29.94F
WILMINGTON       N/A    N/A N/A N/A MISG      29.96F
$$

OHZ036-037-039>041-045>050-054>059-063>069-073>076-082>088-201600-
  CENTRAL AND SOUTHEAST OHIO

CITY           SKY/WX    TMP DP  RH WIND       PRES   REMARKS
COLUMBUS       CLOUDY    52  43  71 S10       29.96F
OSU AIRPORT    PTSUNNY   52  44  74 SW8       29.95F
BOLTON FIELD   MOSUNNY   52  45  76 S9        29.96F
RICKENBACK AFB PTSUNNY   51  43  73 S12       29.96F
NEWARK         CLOUDY    52  42  69 S8        29.97F
MARION         LGT RAIN  52  44  74 S14       29.91F
LANCASTER      CLOUDY    52  43  71 SW9       29.97F
ZANESVILLE     CLOUDY    50  41  71 S7        29.98F
NEW PHILLY     CLOUDY    51  41  68 VRB5      29.98F
$$



USA.gov is the U.S. government's official web portal to all federal, state and local government web resources and services.